SL-14 DEB

Satellite information

Favourite Embed

Satellite Type and Status

DEBRISIN ORBIT

Key statistics

Satellite SL-14 DEB at a glance.

Uptime

13893

Days in orbit

Revolutions

≈ 13.9

Per day

Orbit

LEO

Low Earth Orbit

Inclination

82.5

Latest

Satellite identification and parameters

Extended collection of information and parameters for SL-14 DEB.

Object identification

Identified? True

Debris? True

Object name: SL-14 DEB

International designator: 1987-068CK

Object number (NORAD): 27628

Object ID (CCSDS): 27628

Country: COMMONWEALTH OF INDEPENDENT STATES (CIS)

Current information (Y/N): Y

RCS size: SMALL

Orbital parameters

Period: 103.307 minutes

Inclination: 82.5157 deg

SMA: 7293.132 km

Apoapsis: 934.507 km

Periapsis: 895.488 km

RAAN: 28.4705 deg

Eccentricy: 0.00267509

Argument of periapsis: 150.2724 deg

Mean anomaly: 209.9968 deg

Mean motion: 13.93899992 rev/day

Mean motion (dot): 0.00000259 rev/day2

B* drag term: 0.00018385956 1/REarth

Two-line elements (TLE)

Creation date: Aug. 26, 2025, 4:03 a.m.

Reference frame: TEME

Reference center: EARTH

Epoch: Aug. 25, 2025, 5:19 p.m. UTC

TLE line 0: 0 SL-14 DEB

TLE line 1: 1 27628U 87068CK 25237.72158629 .00000259 00000-0 18386-3 0 9998

TLE line 2: 2 27628 82.5157 28.4705 0026751 150.2724 209.9968 13.93899992314905

Live tracking on map

Real-time ground track for satellite SL-14 DEB.

In-orbit conjunctions

A list of the most updated potential collisions computed for object SL-14 DEB.

Target Orbit TCA Probability of collision Miss distance Type
CZ-6A DEB LEO 2025-02-06 05:02:37 0.0001339432 190.0 (m) DEBRIS
LANDSAT 3 SSO 2024-10-06 00:20:43 0.0005155522 222.0 (m) PAYLOAD

Associated space launch

Second generation soviet meteorological satellite

SL-14 DEB was lifted into orbit during the mission ‘Tsiklon-3 | Meteor-2 16’, on board a Tsiklon-3 space rocket.

The launch took place on Aug. 18, 1987, 2:27 a.m. from 32/1.

For more information about the launch, click the button.

Launch to space Tsiklon-3 | Meteor-2 16
Tsiklon-3 | Meteor-2 16

Agency: N/A

Status: Launch Successful

Launch date: Aug. 18, 1987, 2:27 a.m. UTC

Rocket: Tsiklon-3

Launch pad: 32/1

Location: Plesetsk Cosmodrome, Russian Federation

...

Latest news about this satellite

There are no fresh news available about this satellite. Check back as we update our databases every day.


Newsletter sign-up

Weekly statistics, charts and insights to help you stay on top of the space industry.